DECAYED
Showing default

PICO-02B022, 60571 (Decayed)

Orbit data source: Space-Track

PICO-02B022, 60571 was a payload satellite owned by Apogeo Space (IT) in LEO that was launched on Fri, 16 Aug 2024 UTC via an FALCON 9 launch vehicle from the Air Force Western Test Range (AFWTR). Payload-class satellites include a variety of spacecraft equipped with specific instruments for various scientific and technological missions. These include communications satellites like Starlink; space stations such as the ISS; scientific satellites like the Hubble; Earth observation satellites from companies like Planet Labs, Umbra, and HawkEye 360; GPS; miniature CubeSats for education and research; and military/defense satellites.

Not visible in the next 10 days
Identifier
60571, 2024-149DH
Orbit
Decayed
Country
Flag of ITIT
Related business
Manufacturer
Apogeo Space
Mission
Decayed Commercial Communications
Bus & Motor
CUBESAT 0.3U, Unknown motor
Mass
0.5 kg wet, 0.5 kg dry
Launch date (UTC)
2024-08-16 (1 year ago)
Launch vehicle
FALCON 9
Launch site
Air Force Western Test Range (AFWTR)
Object type
Payload
Rocket body
Debris
Shape & HBR
Box, 0.1 m
Radar Cross Section
0.008 m², Medium (>0.1 m² and < 1m²)

Expand to show TLE details & history
Last TLE update: 2 weeks ago

TLE from 2 weeks ago
0 PICO-02B022
1 60571U 24149DH  25342.68455166  .11029599  26022-5  36080-2 0  9998
2 60571  97.6616  74.9833 0011857 312.9665  47.0631 16.25849960 72712
Epoch: 2025-12-08T16:25Z
TLE epoch observation values (Epoch: 2025-12-08T16:25:45.263Z)
Latitude
-0.00002°
Longitude
110.86466°
Altitude
201.628 km
Speed
7.788 km/s
True Right ascension
04h 59m 55s
True Declination
0° 00' 00"
Sunlit
Object was in full shadow at epoch
Visualization orbit readout
Latitude
Unknown
Longitude
Unknown
Altitude
Unknown
Speed
Unknown
Apparent Right ascension
Unknown
Apparent Declination
Unknown
Sunlit
N/A
Visualization observer readout
Local Sidereal Time
03:19:56
Azimuth
Unknown
Elevation
Unknown
Doppler factor
Unknown
Orbital elements
Apogee altitude
208.355 km
Perigee altitude
192.754 km
Semi-major axis
6,578.691 km
Eccentricity
0.00119
Inclination
97.6616°
RAAN
74.9833°
Arg. of periapsis
312.9665°
True anomaly
47.16267°
Mean anomaly
47.0631°
Eccentric anomaly
47.11288°
Mean motion
4.06756 °/min
Orbital period
88.51 mins
BSTAR
0.003608
Loading maneuver chart data...
Computing Atmospheric mass density...
Loading historical data...
Loading historical data...
Loading historical data...
Loading historical data...
Loading historical data...
Loading historical data...
Loading historical data...

Documentation

Showing up to 5 results
|